GW2011 Weather Reports


Display with metric or nautical units.
time (UTC)temp
F
wind
direction
speed
MPH
gust
MPH
rain 1hr
in
rain 24hr
in
rain mn
in
humidity
%
barometer
mb
20260504020512 60 0 0.0 2.0 0.00 0.00 0.00 46 1000.3
20260504020032 61 267 0.0 2.0 0.00 0.00 0.00 37 1000.4
20260504015512 61 267 0.0 2.0 0.00 0.00 0.00 36 1000.5
20260504015012 61 267 1.0 2.0 0.00 0.00 0.00 36 1000.3
20260504014538 62 267 1.0 3.0 0.00 0.00 0.00 37 1000.3
20260504014014 62 267 1.0 3.0 0.00 0.00 0.00 36 1000.5
20260504013511 62 267 1.0 3.0 0.00 0.00 0.00 37 1000.5
20260504013033 62 272 2.0 6.0 0.00 0.00 0.00 35 1000.5
20260504012514 63 265 2.0 6.0 0.00 0.00 0.00 36 1000.6
20260504012014 63 265 2.0 6.0 0.00 0.00 0.00 39 1000.5
20260504011537 63 257 3.0 6.0 0.00 0.00 0.00 37 1000.7
20260504011012 64 263 3.0 6.0 0.00 0.00 0.00 36 1000.7
20260504010515 64 273 3.0 6.0 0.00 0.00 0.00 36 1000.7
20260504010038 64 269 2.0 7.0 0.00 0.00 0.00 34 1000.7
20260504005514 65 268 3.0 7.0 0.00 0.00 0.00 34 1000.8
20260504005018 65 270 2.0 7.0 0.00 0.00 0.00 34 1000.8
20260504004534 65 264 3.0 7.0 0.00 0.00 0.00 33 1001.0
20260504004017 65 275 3.0 8.0 0.00 0.00 0.00 34 1000.9
20260504003515 65 244 4.0 10.0 0.00 0.00 0.00 32 1001.0
20260504003037 65 259 4.0 10.0 0.00 0.00 0.00 34 1000.9
20260504002514 65 267 3.0 10.0 0.00 0.00 0.00 35 1001.0
20260504002016 65 271 4.0 9.0 0.00 0.00 0.00 36 1001.0
20260504001540 65 272 5.0 9.0 0.00 0.00 0.00 33 1001.1
20260504001014 65 275 3.0 8.0 0.00 0.00 0.00 34 1001.0
20260504000514 65 265 4.0 8.0 0.00 0.00 0.00 34 1001.1
20260504000032 65 262 4.0 8.0 0.00 0.00 0.00 36 1001.2
20260503235516 65 248 3.0 8.0 0.00 0.00 0.00 34 1001.2
20260503235014 65 261 3.0 6.0 0.00 0.00 0.00 37 1001.1
20260503234532 65 275 2.0 7.0 0.00 0.00 0.00 34 1001.2
20260503234015 66 261 3.0 7.0 0.00 0.00 0.00 31 1001.4
20260503233515 66 306 3.0 8.0 0.00 0.00 0.00 30 1001.4
20260503233036 66 288 3.0 9.0 0.00 0.00 0.00 31 1001.4
20260503232516 66 306 4.0 13.0 0.00 0.00 0.00 33 1001.4
20260503232014 65 265 6.0 13.0 0.00 0.00 0.00 35 1001.5
20260503231534 65 258 5.0 9.0 0.00 0.00 0.00 36 1001.5
20260503231017 66 264 5.0 11.0 0.00 0.00 0.00 34 1001.5
20260503230517 66 265 4.0 11.0 0.00 0.00 0.00 32 1001.6
20260503230034 66 267 5.0 10.0 0.00 0.00 0.00 35 1001.7
20260503225517 66 252 6.0 10.0 0.00 0.00 0.00 32 1001.7
20260503225018 66 265 6.0 10.0 0.00 0.00 0.00 34 1001.6
20260503224537 67 255 4.0 10.0 0.00 0.00 0.00 31 1001.7
20260503224015 67 255 5.0 13.0 0.00 0.00 0.00 32 1001.8
20260503223517 67 313 5.0 14.0 0.00 0.00 0.00 30 1001.7
20260503223033 67 257 7.0 14.0 0.00 0.00 0.00 31 1002.0
20260503222515 67 263 6.0 12.0 0.00 0.00 0.00 30 1002.0
20260503222015 67 293 5.0 10.0 0.00 0.00 0.00 31 1002.1
20260503221533 67 254 5.0 11.0 0.00 0.00 0.00 29 1002.1
20260503221014 68 265 4.0 11.0 0.00 0.00 0.00 29 1002.1
20260503220514 68 288 3.0 9.0 0.00 0.00 0.00 29 1002.3
20260503220032 68 256 2.0 9.0 0.00 0.00 0.00 29 1002.4
20260503215511 68 265 3.0 11.0 0.00 0.01 0.00 27 1002.4
20260503215013 68 301 3.0 11.0 0.00 0.01 0.00 29 1002.4
20260503214531 68 270 3.0 7.0 0.00 0.01 0.00 31 1002.4
20260503214012 68 286 3.0 8.0 0.00 0.01 0.00 29 1002.6
20260503213513 68 352 3.0 10.0 0.00 0.01 0.00 30 1002.5
20260503213033 67 290 4.0 11.0 0.00 0.01 0.00 30 1002.7
20260503212512 67 269 4.0 11.0 0.00 0.01 0.00 34 1002.5
20260503212013 67 255 7.0 14.0 0.00 0.01 0.00 32 1002.7
20260503211532 67 355 5.0 14.0 0.00 0.01 0.00 32 1002.6
20260503211014 67 251 3.0 12.0 0.00 0.01 0.00 28 1002.6
20260503210514 67 288 4.0 12.0 0.00 0.01 0.00 32 1002.8
20260503210034 67 268 6.0 10.0 0.00 0.01 0.00 31 1002.7
20260503205514 67 225 1.0 9.0 0.00 0.01 0.00 32 1002.8
20260503205015 67 275 3.0 15.0 0.00 0.01 0.00 31 1003.0
20260503204533 66 246 7.0 15.0 0.00 0.01 0.00 33 1003.0
20260503204017 67 272 4.0 11.0 0.00 0.01 0.00 32 1003.0
20260503203514 67 297 6.0 11.0 0.00 0.01 0.00 30 1003.2
20260503203032 67 346 4.0 14.0 0.00 0.01 0.00 30 1003.2
20260503202513 67 265 5.0 14.0 0.00 0.01 0.00 29 1003.4
20260503202016 67 286 2.0 11.0 0.00 0.01 0.00 31 1003.4
20260503201532 66 296 6.0 11.0 0.00 0.01 0.00 33 1003.5
20260503201011 67 304 4.0 9.0 0.00 0.01 0.00 30 1003.5
20260503200514 67 248 4.0 9.0 0.00 0.01 0.00 33 1003.6
20260503200032 67 252 3.0 11.0 0.00 0.01 0.00 32 1003.6
20260503195513 67 277 7.0 11.0 0.00 0.01 0.00 30 1003.6
20260503195014 67 258 3.0 10.0 0.00 0.01 0.00 31 1003.8
20260503194533 68 342 2.0 10.0 0.00 0.01 0.00 29 1003.7
20260503194013 67 249 2.0 6.0 0.00 0.01 0.00 30 1003.9
20260503193511 67 291 2.0 10.0 0.00 0.01 0.00 29 1003.9
20260503193037 67 30 6.0 10.0 0.00 0.01 0.00 31 1003.9
20260503192514 67 273 2.0 9.0 0.00 0.01 0.00 31 1003.9
20260503192014 67 312 5.0 9.0 0.00 0.01 0.00 34 1003.9
20260503191538 68 275 3.0 8.0 0.00 0.01 0.00 30 1004.0
20260503191016 67 277 1.0 8.0 0.00 0.01 0.00 31 1004.0
20260503190515 67 348 3.0 8.0 0.00 0.01 0.00 30 1004.0
20260503190032 67 294 3.0 9.0 0.00 0.01 0.00 32 1004.3
20260503185515 67 262 5.0 9.0 0.00 0.01 0.00 30 1004.4
20260503185016 67 292 3.0 8.0 0.00 0.01 0.00 29 1004.3
20260503184534 67 336 2.0 8.0 0.00 0.01 0.00 30 1004.4
20260503184016 67 346 1.0 7.0 0.00 0.01 0.00 33 1004.4
20260503183514 67 292 3.0 8.0 0.00 0.01 0.00 30 1004.7
20260503183034 67 343 3.0 10.0 0.00 0.01 0.00 28 1004.7
20260503182517 67 55 3.0 10.0 0.00 0.01 0.00 30 1004.8
20260503182013 67 314 2.0 9.0 0.00 0.01 0.00 30 1004.7
20260503181533 67 46 2.0 9.0 0.00 0.01 0.00 32 1004.8
20260503181015 66 39 2.0 7.0 0.00 0.01 0.00 33 1004.9
20260503180518 66 313 2.0 8.0 0.00 0.01 0.00 30 1004.9
20260503180043 66 278 2.0 9.0 0.00 0.01 0.00 30 1004.9
20260503175515 66 46 2.0 9.0 0.00 0.01 0.00 30 1004.9
20260503175013 66 297 4.0 9.0 0.00 0.01 0.00 28 1004.9
20260503174535 66 337 1.0 7.0 0.00 0.01 0.00 34 1004.7
20260503174015 66 300 2.0 7.0 0.00 0.01 0.00 34 1004.9
20260503173517 66 13 1.0 7.0 0.00 0.01 0.00 33 1005.0
20260503173037 66 323 2.0 7.0 0.00 0.01 0.00 33 1005.1
20260503172514 66 339 2.0 6.0 0.00 0.01 0.00 34 1005.0
20260503172016 66 300 3.0 6.0 0.00 0.01 0.00 35 1005.1
20260503171532 65 65 1.0 6.0 0.00 0.01 0.00 38 1005.1
20260503171015 65 189 2.0 7.0 0.00 0.01 0.00 35 1005.3
20260503170516 65 340 2.0 7.0 0.00 0.01 0.00 37 1005.1
20260503150515 61 32 2.0 5.0 0.00 0.01 0.00 47 1005.3
20260503131019 51 321 0.0 3.0 0.00 0.01 0.00 63 1004.7
20260503130519 51 311 0.0 3.0 0.00 0.01 0.00 64 1004.6
20260503110516 47 308 1.0 4.0 0.00 0.01 0.00 67 1002.5
20260503081532 50 280 1.0 3.0 0.00 0.01 0.00 66 1001.7
20260503081014 50 280 1.0 2.0 0.00 0.01 0.00 65 1001.8
20260503080516 50 280 0.0 2.0 0.00 0.01 0.00 67 1001.7
20260503072515 53 273 2.0 4.0 0.00 0.01 0.00 61 1001.8
20260503072015 53 264 2.0 4.0 0.00 0.01 0.00 60 1001.9
20260503071532 53 257 2.0 4.0 0.00 0.01 0.00 62 1001.9
20260503071015 54 261 2.0 6.0 0.00 0.01 0.00 59 1001.8
20260503070512 54 267 2.0 6.0 0.00 0.01 0.00 59 1002.1
20260503060104 57 221 2.0 10.0 0.00 0.01 0.00 54 1002.7
20260503055013 57 244 5.0 12.0 0.00 0.01 0.00 56 1002.8
20260503054538 57 254 3.0 11.0 0.00 0.01 0.00 56 1002.7
20260503054016 57 234 5.0 12.0 0.00 0.01 0.00 56 1002.9
20260503053518 57 203 6.0 12.0 0.00 0.01 0.00 56 1002.7
20260503053033 58 236 5.0 14.0 0.00 0.01 0.00 54 1002.7
20260503052514 58 225 7.0 14.0 0.00 0.01 0.00 53 1002.6
20260503052013 58 226 6.0 11.0 0.00 0.01 0.00 53 1002.6
20260503051529 58 256 3.0 12.0 0.00 0.01 0.00 53 1002.6
20260503051015 58 239 5.0 14.0 0.00 0.01 0.00 52 1002.6
20260503050516 58 244 7.0 14.0 0.00 0.01 0.00 53 1002.7
20260503050034 59 224 6.0 15.0 0.00 0.01 0.00 53 1002.6
20260503045515 59 229 8.0 15.0 0.00 0.01 0.01 52 1002.6
20260503045018 59 246 7.0 15.0 0.00 0.01 0.01 52 1002.8
20260503044534 59 217 9.0 15.0 0.00 0.01 0.01 51 1002.9
20260503044015 59 215 9.0 15.0 0.00 0.01 0.01 51 1002.8
20260503043514 59 236 8.0 15.0 0.00 0.01 0.01 52 1002.9
20260503043041 59 234 9.0 17.0 0.00 0.01 0.01 52 1002.8
20260503042524 59 234 8.0 17.0 0.00 0.01 0.01 53 1003.0
20260503042013 58 242 9.0 15.0 0.00 0.01 0.01 55 1003.0
20260503041533 58 221 9.0 15.0 0.00 0.01 0.01 56 1003.3
20260503041017 58 262 7.0 15.0 0.00 0.01 0.01 53 1003.5
20260503040515 58 232 6.0 11.0 0.00 0.01 0.01 52 1003.5
20260503040034 58 248 8.0 12.0 0.00 0.01 0.01 53 1003.7
20260503035515 59 248 8.0 12.0 0.00 0.01 0.01 52 1003.5
20260503035015 59 248 6.0 15.0 0.00 0.01 0.01 51 1003.6
20260503034532 59 236 7.0 15.0 0.00 0.01 0.01 53 1003.5
20260503034014 59 243 9.0 15.0 0.00 0.01 0.01 52 1003.7
20260503033514 60 254 10.0 16.0 0.00 0.01 0.01 50 1003.8
20260503033036 60 253 12.0 17.0 0.00 0.01 0.01 49 1003.9
20260503032515 60 270 12.0 17.0 0.00 0.01 0.01 48 1003.9
20260503032016 59 265 10.0 16.0 0.00 0.01 0.01 48 1003.9
20260503031534 59 249 7.0 14.0 0.00 0.01 0.01 46 1004.1
20260503031015 59 232 7.0 13.0 0.00 0.01 0.01 46 1004.1
20260503030516 59 223 8.0 13.0 0.00 0.01 0.01 45 1004.1
20260503030034 58 239 5.0 10.0 0.00 0.01 0.01 45 1004.2
20260503025515 58 246 4.0 10.0 0.00 0.01 0.01 45 1004.2
20260503025016 58 235 4.0 8.0 0.00 0.01 0.01 46 1004.5
20260503024531 57 239 4.0 8.0 0.00 0.01 0.01 46 1004.6
20260503024013 56 244 1.0 4.0 0.00 0.01 0.01 48 1004.6
20260503023517 56 231 1.0 4.0 0.00 0.01 0.01 48 1004.7
20260503023034 56 351 2.0 4.0 0.00 0.01 0.01 49 1004.6
20260503022513 57 180 0.0 3.0 0.00 0.01 0.01 48 1004.4
20260503022014 57 0 1.0 3.0 0.00 0.01 0.01 49 1004.4
20260503021547 57 180 1.0 6.0 0.00 0.01 0.01 47 1004.5
20260503021013 57 184 2.0 6.0 0.00 0.01 0.01 45 1004.6